Date,TemperatureHighF,TemperatureAvgF,TemperatureLowF,DewpointHighF,DewpointAvgF,DewpointLowF,HumidityHigh,HumidityAvg,HumidityLow,PressureMaxIn,PressureMinIn,WindSpeedMaxMPH,WindSpeedAvgMPH,GustSpeedMaxMPH,PrecipitationSumIn
2013-1-21,-15,-16,-18,-23,-24,-25,70,66,59,29.95,29.91,2,0,3,1.55
2013-1-22,8,-12,-23,-5,-20,-29,78,66,48,30.04,29.91,11,3,14,0.00
2013-1-23,11,-3,-15,4,-11,-22,85,69,43,30.28,29.80,13,5,21,0.00
2013-1-24,4,-10,-19,-8,-18,-25,76,67,52,30.34,30.09,15,4,18,0.00
2013-1-25,17,11,0,14,5,-5,93,79,65,29.96,29.59,21,7,21,0.00
2013-1-26,19,6,-14,8,-2,-18,83,70,57,30.05,29.86,18,5,18,0.00
2013-1-27,35,29,16,29,24,8,99,82,50,29.85,29.54,23,5,29,0.01
2013-1-28,32,28,24,31,28,24,99,98,95,29.61,29.38,13,3,17,0.00
2013-1-29,34,30,25,34,29,21,99,95,85,29.44,29.22,9,3,14,0.00
2013-1-30,25,15,7,21,10,2,91,80,69,29.43,29.29,12,6,16,0.00
2013-1-31,9,3,-10,2,-4,-16,81,70,55,29.86,29.36,10,5,16,0.00
2013-2-1,-1,-9,-21,-9,-18,-26,75,64,46,29.95,29.78,17,5,24,0.00
2013-2-2,11,1,-13,0,-7,-18,83,69,49,29.85,29.65,19,4,26,0.00
2013-2-3,16,7,1,2,-2,-8,85,68,40,29.71,29.62,10,2,11,0.00
2013-2-4,16,2,-18,6,-10,-24,88,59,28,29.74,29.45,12,4,14,0.00
2013-2-5,25,15,0,18,9,-6,95,80,50,29.74,29.33,16,5,18,0.00
2013-2-6,20,17,-7,19,14,-12,96,88,69,29.80,29.69,8,3,9,0.00
2013-2-7,27,23,20,22,20,18,97,88,74,29.98,29.06,12,6,21,0.00
2013-2-8,30,16,0,18,9,-4,93,75,48,30.08,29.95,6,1,9,0.01
2013-2-9,27,20,0,25,18,-4,99,90,77,29.96,29.69,18,8,27,0.00
2013-2-10,30,25,23,30,25,23,99,97,93,29.69,29.01,6,2,16,0.00
2013-2-11,31,25,22,30,22,18,99,86,80,29.63,29.01,0,0,0,0.00
2013-2-12,32,26,12,23,20,10,93,78,65,29.67,29.45,15,6,24,0.00
2013-2-13,31,23,20,24,20,18,92,87,72,30.19,29.37,6,2,11,0.00
2013-2-14,32,21,4,27,10,-4,96,65,40,29.81,28.77,7,2,17,0.01
2013-2-15,21,11,0,4,0,-4,82,62,35,29.94,29.81,5,2,15,0.00
2013-2-16,20,5,-12,6,-5,-18,82,64,35,29.90,29.82,4,1,9,0.00
2013-2-17,27,10,-18,15,0,-24,78,64,52,29.83,29.41,21,9,31,0.00
2013-2-18,33,25,11,26,19,5,91,79,68,29.41,29.21,13,5,25,0.00
2013-2-19,12,4,-3,5,-7,-13,77,60,41,29.99,29.41,9,4,22,0.00
2013-2-20,23,6,-9,6,-3,-14,80,67,41,30.14,29.99,4,1,13,0.00
2013-2-21,31,10,-15,17,3,-19,87,74,46,30.19,29.84,6,2,16,0.00
2013-2-22,28,22,16,25,20,15,96,91,87,29.86,29.52,6,2,13,0.00
2013-2-23,33,27,17,28,23,-14,98,87,73,29.62,29.49,131,1,8,0.07
2013-2-24,39,27,14,25,21,11,91,78,57,29.80,29.62,8,1,13,0.02
2013-2-25,36,20,4,24,14,2,91,81,61,29.81,29.74,10,1,13,0.00
2013-2-26,37,13,6,29,10,-34,93,88,13,29.79,29.70,146,2,146,0.00
2013-2-27,31,30,30,25,24,22,80,76,72,29.98,29.91,6,4,17,0.00
2013-2-28,30,27,26,23,21,19,80,78,74,30.09,29.98,7,5,18,0.00
2013-7-16,79,78,77,72,72,71,83,81,79,30.16,30.15,2,1,4,0.00
2013-7-17,92,82,72,72,69,63,95,66,39,30.20,30.06,9,2,19,0.00
2013-7-18,93,84,73,73,70,66,91,65,42,30.07,29.66,14,5,31,0.00
2013-7-19,84,79,74,73,72,69,94,79,63,29.70,29.62,6,2,15,0.00
2013-8-6,74,65,58,65,61,57,99,89,63,29.79,29.68,8,2,13,0.00
2013-8-7,76,65,54,62,53,44,99,70,33,29.99,29.73,7,1,10,0.00
2013-8-8,73,61,49,62,54,48,99,81,47,30.02,29.94,7,1,11,0.00
2013-8-9,73,63,52,59,51,42,99,68,34,30.08,29.95,4,1,10,0.00
2013-8-10,76,64,56,56,51,45,89,66,35,30.14,30.06,4,1,7,0.00
2013-8-11,77,64,49,58,52,46,98,70,35,30.08,29.97,4,1,8,0.00
2013-8-12,79,60,49,61,52,45,96,77,30,30.08,29.95,6,1,11,0.02
2013-8-13,72,58,43,58,46,38,98,68,32,30.17,30.07,4,1,11,0.00
2013-8-14,74,59,44,54,46,37,96,67,27,30.19,30.06,6,1,14,0.00
2013-8-15,78,64,51,55,49,39,94,63,26,30.10,30.03,5,1,10,0.00
2013-8-16,79,71,54,59,52,43,91,56,31,30.14,30.08,5,1,13,0.00
2013-8-17,72,58,52,57,53,50,95,84,50,30.17,30.14,8,1,15,0.00
2013-8-30,69,69,69,64,64,64,83,83,83,29.93,29.93,3,3,10,0.00